Change the Weather History Date:

Saturday, November 23, 2013

  Actual Average Record
Temperature  
Mean Temperature 54 °F -  
Max Temperature 63 °F 61 °F 81 °F (1992)
Min Temperature 45 °F 41 °F 23 °F (1976)
Degree Days  
Heating Degree Days 10    
Growing Degree Days 4 (Base 50)    
Moisture  
Dew Point 51 °F    
Average Humidity 80    
Maximum Humidity 100    
Minimum Humidity 42    
Precipitation  
Precipitation 0.02 in - - ()
Sea Level Pressure  
Sea Level Pressure 30.08 in    
Wind  
Wind Speed 5 mph (WNW)    
Max Wind Speed 10 mph    
Max Gust Speed -    
Visibility 9 miles    
Events Rain    
Averages and records for this station are not official NWS values.
T = Trace of Precipitation, MM = Missing Value Source: NWS Daily Summary

Daily Weather History Graph

Daily Weather History Graph

Search for Another Location

Airport or City:

Trip Planner

Search our weather history database for the weather conditions in past years. The results will help you decide how hot, cold, wet, or windy it might be!

Date:

Astronomy

Nov. 23, 2013 Rise Set
Actual Time 6:53 AM EST 4:59 PM EST
Civil Twilight 6:26 AM EST 5:27 PM EST
Nautical Twilight 5:55 AM EST 5:58 PM EST
Astronomical Twilight 5:24 AM EST 6:28 PM EST
Moon 10:21 PM EST (11/23) 11:13 AM EST (11/23)
Length of Visible Light 11h 01m
Length of Day
10h 06m
Waning Gibbous, 70% of the Moon is Illuminated
Nov 23
Waning Gibbous
Nov 25
Last Quarter
Dec 2
New
Dec 9
First Quarter
Dec 17
Full

Hourly Weather History & Observations

Time (EST) Temp. Windchill Dew Point Humidity Pressure Visibility Wind Dir Wind Speed Gust Speed Precip Events Conditions
12:15 AM 63.5 °F - 62.1 °F 95% 30.10 in 10.0 mi SW 3.5 mph - 0.01 in Rain Light Rain
12:35 AM 63.5 °F - 62.1 °F 95% 30.09 in 10.0 mi SSW 4.6 mph - 0.01 in Rain Rain
12:55 AM 63.5 °F - 62.2 °F 96% 30.09 in 10.0 mi SSW 4.6 mph - 0.01 in   Scattered Clouds
1:15 AM 63.5 °F - 62.2 °F 96% 30.08 in 10.0 mi SSW 4.6 mph - N/A Rain Light Rain
1:35 AM 63.5 °F - 62.2 °F 96% 30.08 in 10.0 mi WSW 4.6 mph - N/A   Mostly Cloudy
1:55 AM 63.7 °F - 62.6 °F 96% 30.08 in 10.0 mi WSW 3.5 mph - N/A   Overcast
2:15 AM 63.7 °F - 62.6 °F 96% 30.08 in 10.0 mi SW 3.5 mph - N/A   Overcast
2:35 AM 63.7 °F - 62.6 °F 96% 30.07 in 10.0 mi SW 4.6 mph - N/A   Overcast
2:55 AM 63.7 °F - 62.6 °F 96% 30.07 in 10.0 mi SW 5.8 mph - N/A   Overcast
3:15 AM 63.7 °F - 62.6 °F 96% 30.07 in 7.0 mi SW 5.8 mph - N/A   Mostly Cloudy
3:35 AM 63.7 °F - 62.6 °F 96% 30.06 in 7.0 mi SW 5.8 mph - N/A Rain Rain
3:55 AM 63.7 °F - 62.6 °F 96% 30.06 in 7.0 mi SW 5.8 mph - N/A Rain Rain
4:15 AM 63.7 °F - 62.6 °F 96% 30.06 in 4.0 mi WSW 4.6 mph - 0.01 in Rain Rain
4:35 AM 63.5 °F - 62.6 °F 97% 30.07 in 3.0 mi West 4.6 mph - 0.01 in   Heavy Drizzle
4:55 AM 63.5 °F - 62.6 °F 97% 30.07 in 7.0 mi West 3.5 mph - 0.01 in Rain Rain
5:15 AM 63.0 °F - 62.1 °F 97% 30.06 in 7.0 mi Calm Calm - N/A   Mostly Cloudy
5:35 AM 62.8 °F - 61.9 °F 97% 30.06 in 7.0 mi Calm Calm - N/A   Mostly Cloudy
5:55 AM 62.8 °F - 62.1 °F 97% 30.07 in 7.0 mi West 3.5 mph - N/A   Mostly Cloudy
6:56 AM 62.6 °F - 60.8 °F 94% 30.07 in 5.0 mi West 3.5 mph - N/A   Clear
7:56 AM 60.8 °F - 60.8 °F 100% 30.09 in 10.0 mi WNW 3.5 mph - N/A   Scattered Clouds
8:56 AM 62.6 °F - 57.2 °F 82% 30.09 in 10.0 mi NNW 9.2 mph - N/A   Mostly Cloudy
9:56 AM 60.8 °F - 55.4 °F 82% 30.10 in 10.0 mi NNW 6.9 mph - N/A   Overcast
10:56 AM 60.8 °F - 57.2 °F 88% 30.09 in 7.0 mi NNW 8.1 mph - N/A   Light Drizzle
11:56 AM 57.2 °F - 55.4 °F 94% 30.08 in 3.0 mi NNE 9.2 mph - N/A   Drizzle
12:56 PM 57.2 °F - 55.4 °F 94% 30.06 in 7.0 mi NE 5.8 mph - N/A   Overcast
1:56 PM 59.0 °F - 51.8 °F 77% 30.03 in 10.0 mi NNE 8.1 mph - N/A   Scattered Clouds
2:56 PM 57.2 °F - 48.2 °F 72% 30.04 in 10.0 mi North 6.9 mph - N/A   Overcast
3:56 PM 57.2 °F - 48.2 °F 72% 30.05 in 10.0 mi North 4.6 mph - N/A   Unknown
4:56 PM 55.4 °F - 48.2 °F 77% 30.05 in 10.0 mi NNE 3.5 mph - N/A   Overcast
5:56 PM 53.6 °F - 50.0 °F 88% 30.06 in 10.0 mi Calm Calm - N/A   Mostly Cloudy
6:56 PM 51.8 °F - 51.8 °F 100% 30.07 in 7.0 mi Calm Calm - N/A   Scattered Clouds
8:15 PM 52.9 °F - 49.5 °F 88% 30.08 in 10.0 mi NW 10.4 mph - N/A   Clear
8:35 PM 54.0 °F - 35.6 °F 50% 30.08 in 10.0 mi NNW 10.4 mph - N/A   Scattered Clouds
8:55 PM 53.4 °F - 32.2 °F 44% 30.09 in 10.0 mi NNW 6.9 mph - N/A   Scattered Clouds
9:15 PM 52.2 °F - 31.1 °F 45% 30.09 in 10.0 mi NNW 5.8 mph - N/A   Clear
9:35 PM 51.4 °F - 30.6 °F 45% 30.10 in 10.0 mi NNW 6.9 mph - N/A   Clear
9:55 PM 50.9 °F - 30.2 °F 45% 30.09 in 10.0 mi NNW 10.4 mph - N/A   Clear
10:15 PM 49.6 °F - 30.2 °F 47% 30.10 in 10.0 mi NNW 8.1 mph - N/A   Clear
10:35 PM 48.7 °F - 29.7 °F 48% 30.11 in 10.0 mi NNW 8.1 mph - N/A   Clear
10:55 PM 48.6 °F - 26.6 °F 42% 30.12 in 10.0 mi NNW 9.2 mph - N/A   Clear
11:15 PM 47.8 °F - 25.9 °F 42% 30.13 in 10.0 mi NNW 9.2 mph - N/A   Clear
11:35 PM 46.8 °F - 24.4 °F 42% 30.13 in 10.0 mi NNW 9.2 mph - N/A   Clear
11:55 PM 45.5 °F 42.5 °F 25.0 °F 45% 30.14 in 10.0 mi NNW 5.8 mph - N/A   Clear